Location: *
(35.2348°S, 91.3916°E)
Time: 12:17:16
(UTC+00:00)

H-2A R/B - Pass Details

Date: 23 October 2019
Orbit: 733 x 837 km, 98.3° (Epoch: 20 November)

Event Time Altitude Azimuth Distance (km) Brightness Sun altitude
Rises 15:27:42 0° 180° (S) 3,214 5.9 -34.0°
Reaches altitude 10° 15:30:13 10° 190° (S) 2,293 5.1 -34.3°
Enters shadow 15:34:28 30° 248° (WSW) 1,340 3.6 -34.8°
